,,Stat1,,Stat2,,Stat3,,Stat4,,Wind1,,Wind1,
time,status,PR1M_SUM,status,RH1M_AVG,status,SR1M_AVG,status,TA1M_AVG,status,W1dAve1m,status,W1sAve1m,
2000-02-05, 00:00:01,VALID,0,VALID,100,VALID,0.0169808,VALID,18.4245,VALID,211,VALID,0.260352,
2000-02-05, 00:01:01,VALID,0,VALID,100,VALID,0.0169808,VALID,18.4505,VALID,218,VALID,0,
2000-02-05, 00:02:01,VALID,0,VALID,100,VALID,0,VALID,18.4572,VALID,216,VALID,0,
2000-02-05, 00:03:00,VALID,0,VALID,100,VALID,0,VALID,18.4309,VALID,223,VALID,0,
2000-02-05, 00:04:00,VALID,0,VALID,100,VALID,0,VALID,18.4249,VALID,223,VALID,0,
2000-02-05, 00:05:00,VALID,0,VALID,100,VALID,0.0339617,VALID,18.4247,VALID,217,VALID,0.0739183,
2000-02-05, 00:06:00,VALID,0,VALID,100,VALID,0,VALID,18.4049,VALID,214,VALID,0.752679,
2000-02-05, 00:07:00,VALID,0,VALID,100,VALID,0.0339617,VALID,18.4023,VALID,223,VALID,0.764706,
2000-02-05, 00:08:00,VALID,0,VALID,100,VALID,0.0169808,VALID,18.3959,VALID,218,VALID,0.481908,
2000-02-05, 00:09:00,VALID,0,VALID,100,VALID,0,VALID,18.3862,VALID,218,VALID,0.419408,
2000-02-05, 00:10:00,VALID,0,VALID,100,VALID,0,VALID,18.3633,VALID,219,VALID,0,
2000-02-05, 00:11:00,VALID,0,VALID,100,VALID,0,VALID,18.3368,VALID,226,VALID,0.0683093,
2000-02-05, 00:12:00,VALID,0,VALID,100,VALID,0,VALID,18.3375,VALID,229,VALID,0.486579,
2000-02-05, 00:13:01,VALID,0,VALID,100,VALID,0,VALID,18.3241,VALID,230,VALID,0.547286,
2000-02-05, 00:14:00,VALID,0,VALID,100,VALID,0,VALID,18.3276,VALID,209,VALID,0.515008,
2000-02-05, 00:15:00,VALID,0,VALID,100,VALID,0,VALID,18.3407,VALID,213,VALID,0.665465,
2000-02-05, 00:16:00,VALID,0,VALID,100,VALID,0,VALID,18.3373,VALID,198,VALID,0.5,
2000-02-05, 00:17:00,VALID,0,VALID,100,VALID,0.0339617,VALID,18.3633,VALID,189,VALID,0.623598,
2000-02-05, 00:18:00,VALID,0,VALID,100,VALID,0.0169808,VALID,18.3633,VALID,179,VALID,0.624794,
2000-02-05, 00:19:00,VALID,0,VALID,100,VALID,0.0169808,VALID,18.3147,VALID,158,VALID,0.733507,
2000-02-05, 00:20:00,VALID,0,VALID,100,VALID,0,VALID,18.179,VALID,141,VALID,0.677973,
2000-02-05, 00:21:00,VALID,0,VALID,100,VALID,-0.0169808,VALID,18.0694,VALID,137,VALID,0.625617,
2000-02-05, 00:22:00,VALID,0,VALID,100,VALID,0,VALID,18.0399,VALID,145,VALID,0.617188,
2000-02-05, 00:23:01,VALID,0,VALID,100,VALID,0,VALID,18.0632,VALID,155,VALID,0.738281,
2000-02-05, 00:24:00,VALID,0,VALID,100,VALID,0.101885,VALID,18.0745,VALID,150,VALID,0.756641,
2000-02-05, 00:25:00,VALID,0,VALID,100,VALID,0.0849042,VALID,18.0362,VALID,148,VALID,0.535773,
2000-02-05, 00:26:00,VALID,0,VALID,100,VALID,0.0849042,VALID,18.0201,VALID,148,VALID,0.573902,
2000-02-05, 00:27:00,VALID,0,VALID,100,VALID,0.101885,VALID,18.0293,VALID,148,VALID,0.471423,
2000-02-05, 00:28:00,VALID,0,VALID,100,VALID,0.101885,VALID,17.9938,VALID,143,VALID,0,
2000-02-05, 00:29:00,VALID,0,VALID,100,VALID,0.0679233,VALID,17.9878,VALID,143,VALID,0,
2000-02-05, 00:30:00,VALID,0,VALID,100,VALID,0.101885,VALID,17.9357,VALID,143,VALID,0,
2000-02-05, 00:31:00,VALID,0,VALID,100,VALID,0.0849042,VALID,17.8457,VALID,129,VALID,0,
2000-02-05, 00:32:00,VALID,0,VALID,100,VALID,0.101885,VALID,17.7198,VALID,106,VALID,0,
2000-02-05, 00:33:00,VALID,0,VALID,100,VALID,0.101885,VALID,17.6843,VALID,104,VALID,0,
2000-02-05, 00:34:00,VALID,0,VALID,100,VALID,0.101885,VALID,17.6645,VALID,106,VALID,0,
2000-02-05, 00:35:00,VALID,0,VALID,100,VALID,0.101885,VALID,17.6901,VALID,113,VALID,0,
2000-02-05, 00:36:00,VALID,0,VALID,100,VALID,0.101885,VALID,17.7579,VALID,137,VALID,0,
2000-02-05, 00:37:00,VALID,0,VALID,100,VALID,0.118866,VALID,17.8649,VALID,150,VALID,0,
2000-02-05, 00:38:00,VALID,0,VALID,100,VALID,0.101885,VALID,17.9133,VALID,150,VALID,0,
2000-02-05, 00:39:00,VALID,0,VALID,100,VALID,0.0169808,VALID,17.8921,VALID,150,VALID,0,
2000-02-05, 00:40:00,VALID,0,VALID,100,VALID,0,VALID,17.8824,VALID,150,VALID,0,
2000-02-05, 00:41:00,VALID,0,VALID,100,VALID,0,VALID,17.8372,VALID,150,VALID,0,
2000-02-05, 00:42:00,VALID,0,VALID,100,VALID,0,VALID,17.7407,VALID,150,VALID,0,
2000-02-05, 00:43:00,VALID,0,VALID,100,VALID,0,VALID,17.7147,VALID,150,VALID,0,
2000-02-05, 00:44:00,VALID,0,VALID,100,VALID,0.0339617,VALID,17.7114,VALID,150,VALID,0,
2000-02-05, 00:45:01,VALID,0,VALID,100,VALID,0,VALID,17.7018,VALID,150,VALID,0,
2000-02-05, 00:46:00,VALID,0,VALID,100,VALID,0,VALID,17.6949,VALID,150,VALID,0,
2000-02-05, 00:47:00,VALID,0,VALID,100,VALID,0.0169808,VALID,17.6374,VALID,150,VALID,0,
2000-02-05, 00:48:00,VALID,0,VALID,100,VALID,0.0169808,VALID,17.553,VALID,150,VALID,0,
2000-02-05, 00:49:00,VALID,0,VALID,100,VALID,0.0339617,VALID,17.4815,VALID,128,VALID,0,
2000-02-05, 00:50:00,VALID,0,VALID,100,VALID,0,VALID,17.4301,VALID,115,VALID,0,
2000-02-05, 00:51:00,VALID,0,VALID,100,VALID,0.0169808,VALID,17.4947,VALID,125,VALID,0.514844,
2000-02-05, 00:52:00,VALID,0,VALID,100,VALID,0.0169808,VALID,17.6667,VALID,126,VALID,0.841283,
2000-02-05, 00:53:00,VALID,0,VALID,100,VALID,0,VALID,17.7502,VALID,123,VALID,0.782939,
2000-02-05, 00:54:00,VALID,0,VALID,100,VALID,0,VALID,17.7922,VALID,120,VALID,0.513775,
2000-02-05, 00:55:01,VALID,0,VALID,100,VALID,0,VALID,17.6695,VALID,118,VALID,0.515625,
2000-02-05, 00:56:01,VALID,0,VALID,100,VALID,0,VALID,17.6083,VALID,117,VALID,0.104567,
2000-02-05, 00:57:00,VALID,0,VALID,100,VALID,0.0169808,VALID,17.6406,VALID,119,VALID,0,
2000-02-05, 00:58:00,VALID,0,VALID,100,VALID,-0.101885,VALID,17.6607,VALID,119,VALID,0,
2000-02-05, 00:59:00,VALID,0,VALID,100,VALID,-0.101885,VALID,17.6351,VALID,119,VALID,0,
2000-02-05, 01:00:00,VALID,0,VALID,100,VALID,-0.101885,VALID,17.6516,VALID,119,VALID,0,
2000-02-05, 01:01:00,VALID,0,VALID,100,VALID,-0.118866,VALID,17.6646,VALID,140,VALID,0,
2000-02-05, 01:02:00,VALID,0,VALID,100,VALID,-0.101885,VALID,17.6577,VALID,151,VALID,0,
2000-02-05, 01:03:00,VALID,0,VALID,100,VALID,-0.101885,VALID,17.6069,VALID,215,VALID,0,
2000-02-05, 01:04:00,VALID,0,VALID,100,VALID,-0.118866,VALID,17.5259,VALID,258,VALID,0,
2000-02-05, 01:05:00,VALID,0,VALID,100,VALID,-0.101885,VALID,17.4904,VALID,244,VALID,0,
2000-02-05, 01:06:00,VALID,0,VALID,100,VALID,-0.0849042,VALID,17.49,VALID,245,VALID,0,
2000-02-05, 01:07:00,VALID,0,VALID,100,VALID,-0.118866,VALID,17.5197,VALID,245,VALID,0,
2000-02-05, 01:08:00,VALID,0,VALID,100,VALID,-0.101885,VALID,17.597,VALID,245,VALID,0,
2000-02-05, 01:09:00,VALID,0,VALID,100,VALID,-0.0849042,VALID,17.5836,VALID,245,VALID,0,
2000-02-05, 01:10:00,VALID,0,VALID,100,VALID,-0.101885,VALID,17.6034,VALID,245,VALID,0,
2000-02-05, 01:11:00,VALID,0,VALID,100,VALID,-0.101885,VALID,17.6519,VALID,245,VALID,0,
2000-02-05, 01:12:00,VALID,0,VALID,100,VALID,-0.101885,VALID,17.6809,VALID,245,VALID,0,
2000-02-05, 01:13:00,VALID,0,VALID,100,VALID,-0.118866,VALID,17.6613,VALID,266,VALID,0,
2000-02-05, 01:14:00,VALID,0,VALID,100,VALID,-0.101885,VALID,17.7656,VALID,292,VALID,0,
2000-02-05, 01:15:00,VALID,0,VALID,100,VALID,-0.118866,VALID,17.8101,VALID,292,VALID,0,
2000-02-05, 01:16:00,VALID,0,VALID,100,VALID,-0.135847,VALID,17.904,VALID,292,VALID,0,
2000-02-05, 01:17:01,VALID,0,VALID,100,VALID,-0.135847,VALID,17.7974,VALID,292,VALID,0,
2000-02-05, 01:18:00,VALID,0,VALID,100,VALID,-0.135847,VALID,17.6747,VALID,292,VALID,0,
2000-02-05, 01:19:00,VALID,0,VALID,100,VALID,-0.118866,VALID,17.626,VALID,292,VALID,0,
2000-02-05, 01:20:00,VALID,0,VALID,100,VALID,-0.101885,VALID,17.6288,VALID,292,VALID,0,
2000-02-05, 01:21:00,VALID,0,VALID,100,VALID,-0.101885,VALID,17.6749,VALID,269,VALID,0,
2000-02-05, 01:22:00,VALID,0,VALID,100,VALID,-0.118866,VALID,17.73,VALID,257,VALID,0,
2000-02-05, 01:23:00,VALID,0,VALID,100,VALID,-0.101885,VALID,17.7423,VALID,226,VALID,0,
2000-02-05, 01:24:00,VALID,0,VALID,100,VALID,-0.0339617,VALID,17.7218,VALID,193,VALID,0,
2000-02-05, 01:25:00,VALID,0,VALID,100,VALID,-0.0169808,VALID,17.6925,VALID,180,VALID,0,
2000-02-05, 01:26:00,VALID,0,VALID,100,VALID,0,VALID,17.6381,VALID,179,VALID,0,
2000-02-05, 01:27:00,VALID,0,VALID,100,VALID,0,VALID,17.4439,VALID,147,VALID,0,
2000-02-05, 01:28:00,VALID,0,VALID,100,VALID,0,VALID,17.2314,VALID,127,VALID,0.671274,
2000-02-05, 01:29:00,VALID,0,VALID,100,VALID,0,VALID,17.1272,VALID,132,VALID,1.18559,
2000-02-05, 01:30:00,VALID,0,VALID,100,VALID,0,VALID,17.3279,VALID,125,VALID,1.35609,
2000-02-05, 01:31:00,VALID,0,VALID,100,VALID,0,VALID,17.5767,VALID,114,VALID,1.31971,
2000-02-05, 01:32:00,VALID,0,VALID,100,VALID,0,VALID,17.6999,VALID,122,VALID,1.04502,
2000-02-05, 01:33:00,VALID,0,VALID,100,VALID,0.0169808,VALID,17.7709,VALID,127,VALID,0.999219,
2000-02-05, 01:34:00,VALID,0,VALID,100,VALID,0,VALID,17.7924,VALID,148,VALID,0.817274,
2000-02-05, 01:35:00,VALID,0,VALID,100,VALID,0,VALID,17.8058,VALID,177,VALID,0.918997,
2000-02-05, 01:36:00,VALID,0,VALID,100,VALID,0.0169808,VALID,17.7774,VALID,186,VALID,0.952303,
2000-02-05, 01:37:00,VALID,0,VALID,100,VALID,0,VALID,17.7119,VALID,185,VALID,0.779772,
2000-02-05, 01:38:00,VALID,0,VALID,100,VALID,0,VALID,17.696,VALID,174,VALID,0.626056,
2000-02-05, 01:39:01,VALID,0,VALID,100,VALID,0,VALID,17.6706,VALID,168,VALID,0.69634,
2000-02-05, 01:40:00,VALID,0,VALID,100,VALID,0,VALID,17.6478,VALID,153,VALID,0.868627,
2000-02-05, 01:41:00,VALID,0,VALID,100,VALID,0,VALID,17.6579,VALID,133,VALID,0.920117,
2000-02-05, 01:42:00,VALID,0,VALID,100,VALID,0,VALID,17.6445,VALID,127,VALID,0.804688,
2000-02-05, 01:43:00,VALID,0,VALID,100,VALID,0,VALID,17.609,VALID,122,VALID,0.835938,
2000-02-05, 01:44:00,VALID,0,VALID,100,VALID,-0.0169808,VALID,17.6318,VALID,122,VALID,0.551562,
2000-02-05, 01:45:00,VALID,0,VALID,100,VALID,0,VALID,17.6378,VALID,136,VALID,0.632813,
2000-02-05, 01:46:00,VALID,0,VALID,100,VALID,-0.0169808,VALID,17.6413,VALID,150,VALID,0.790707,
2000-02-05, 01:47:00,VALID,0,VALID,100,VALID,0.0169808,VALID,17.6348,VALID,154,VALID,1.03463,
2000-02-05, 01:48:00,VALID,0,VALID,100,VALID,0,VALID,17.6443,VALID,159,VALID,1.16345,
2000-02-05, 01:49:00,VALID,0,VALID,100,VALID,0,VALID,17.6734,VALID,160,VALID,1.12993,
2000-02-05, 01:50:01,VALID,0,VALID,100,VALID,0.0339617,VALID,17.764,VALID,163,VALID,1.27644,
2000-02-05, 01:51:01,VALID,0,VALID,100,VALID,0.0169808,VALID,17.854,VALID,160,VALID,1.07873,
2000-02-05, 01:52:00,VALID,0,VALID,100,VALID,0,VALID,17.8734,VALID,162,VALID,1.03611,
2000-02-05, 01:53:00,VALID,0,VALID,100,VALID,0.0169808,VALID,17.9479,VALID,176,VALID,0.885938,
2000-02-05, 01:54:00,VALID,0,VALID,100,VALID,0,VALID,17.9995,VALID,186,VALID,0.884014,
2000-02-05, 01:55:00,VALID,0,VALID,100,VALID,0.0169808,VALID,18.012,VALID,188,VALID,0.721354,
2000-02-05, 01:56:00,VALID,0,VALID,100,VALID,0.0169808,VALID,17.9998,VALID,181,VALID,0.411585,
2000-02-05, 01:57:00,VALID,0,VALID,100,VALID,0.0509425,VALID,17.9246,VALID,180,VALID,0.351357,
2000-02-05, 01:58:00,VALID,0,VALID,100,VALID,0.0169808,VALID,17.8187,VALID,188,VALID,0.0078125,
2000-02-05, 01:59:00,VALID,0,VALID,100,VALID,0,VALID,17.7091,VALID,195,VALID,0.261102,
2000-02-05, 02:00:00,VALID,0,VALID,100,VALID,0.0169808,VALID,17.6867,VALID,192,VALID,0.781055,
2000-02-05, 02:01:00,VALID,0,VALID,100,VALID,0.0169808,VALID,17.6932,VALID,184,VALID,0.8227,
2000-02-05, 02:02:00,VALID,0,VALID,100,VALID,0,VALID,17.7119,VALID,171,VALID,0.679893,
2000-02-05, 02:03:00,VALID,0,VALID,100,VALID,0,VALID,17.6731,VALID,164,VALID,0.743421,
2000-02-05, 02:04:00,VALID,0,VALID,100,VALID,0,VALID,17.6957,VALID,164,VALID,0.197213,
2000-02-05, 02:05:00,VALID,0,VALID,100,VALID,0,VALID,17.7506,VALID,175,VALID,0,
2000-02-05, 02:06:00,VALID,0,VALID,100,VALID,0,VALID,17.8055,VALID,178,VALID,0,
2000-02-05, 02:07:00,VALID,0,VALID,100,VALID,0,VALID,17.7672,VALID,217,VALID,0,
2000-02-05, 02:08:00,VALID,0,VALID,100,VALID,0,VALID,17.6962,VALID,210,VALID,0,
2000-02-05, 02:09:00,VALID,0,VALID,100,VALID,-0.0169808,VALID,17.6249,VALID,224,VALID,0.492188,
2000-02-05, 02:10:00,VALID,0,VALID,100,VALID,0,VALID,17.6086,VALID,228,VALID,0.542318,
2000-02-05, 02:11:00,VALID,0,VALID,100,VALID,0,VALID,17.6635,VALID,223,VALID,0.320508,
2000-02-05, 02:12:00,VALID,0,VALID,100,VALID,0.0169808,VALID,17.7308,VALID,226,VALID,0.233594,
2000-02-05, 02:13:01,VALID,0,VALID,100,VALID,0,VALID,17.7832,VALID,251,VALID,0.306332,
2000-02-05, 02:14:00,VALID,0,VALID,100,VALID,0,VALID,17.7476,VALID,270,VALID,0.454181,
2000-02-05, 02:15:00,VALID,0,VALID,100,VALID,0,VALID,17.6895,VALID,285,VALID,0.40111,
2000-02-05, 02:16:00,VALID,0,VALID,100,VALID,0,VALID,17.6863,VALID,309,VALID,0.577097,
2000-02-05, 02:17:00,VALID,0,VALID,100,VALID,0.0339617,VALID,17.7732,VALID,314,VALID,0.571915,
2000-02-05, 02:18:00,VALID,0,VALID,100,VALID,0,VALID,17.9165,VALID,320,VALID,0.673077,
2000-02-05, 02:19:00,VALID,0,VALID,100,VALID,0,VALID,17.9709,VALID,314,VALID,0.360642,
2000-02-05, 02:20:00,VALID,0,VALID,100,VALID,-0.0169808,VALID,17.9901,VALID,297,VALID,0.363281,
2000-02-05, 02:21:00,VALID,0,VALID,100,VALID,0,VALID,17.9933,VALID,297,VALID,0.0927484,
2000-02-05, 02:22:00,VALID,0,VALID,100,VALID,0,VALID,17.9606,VALID,260,VALID,0,
2000-02-05, 02:23:00,VALID,0,VALID,100,VALID,0,VALID,17.8957,VALID,259,VALID,0,
2000-02-05, 02:24:01,VALID,0,VALID,100,VALID,-0.0679233,VALID,17.8549,VALID,229,VALID,0,
2000-02-05, 02:25:00,VALID,0,VALID,100,VALID,-0.0849042,VALID,17.7838,VALID,218,VALID,0,
2000-02-05, 02:26:00,VALID,0,VALID,100,VALID,-0.0679233,VALID,17.7584,VALID,218,VALID,0,
2000-02-05, 02:27:00,VALID,0,VALID,100,VALID,-0.0509425,VALID,17.7255,VALID,233,VALID,0,
2000-02-05, 02:28:00,VALID,0,VALID,100,VALID,-0.0679233,VALID,17.7229,VALID,233,VALID,0,
2000-02-05, 02:29:00,VALID,0,VALID,100,VALID,-0.0509425,VALID,17.677,VALID,222,VALID,0,
2000-02-05, 02:30:00,VALID,0,VALID,100,VALID,-0.0679233,VALID,17.5868,VALID,197,VALID,0,
2000-02-05, 02:31:00,VALID,0,VALID,100,VALID,-0.0169808,VALID,17.5578,VALID,191,VALID,0,
2000-02-05, 02:32:00,VALID,0,VALID,100,VALID,-0.0509425,VALID,17.5677,VALID,198,VALID,0,
2000-02-05, 02:33:00,VALID,0,VALID,100,VALID,-0.101885,VALID,17.5774,VALID,193,VALID,0,
2000-02-05, 02:34:00,VALID,0,VALID,100,VALID,-0.0509425,VALID,17.5711,VALID,170,VALID,0,
2000-02-05, 02:35:01,VALID,0,VALID,100,VALID,-0.0679233,VALID,17.5578,VALID,170,VALID,0,
2000-02-05, 02:36:00,VALID,0,VALID,100,VALID,-0.0849042,VALID,17.5195,VALID,164,VALID,0,
2000-02-05, 02:37:00,VALID,0,VALID,100,VALID,-0.118866,VALID,17.4323,VALID,166,VALID,0,
2000-02-05, 02:38:00,VALID,0,VALID,100,VALID,-0.0679233,VALID,17.4549,VALID,188,VALID,0.639844,
2000-02-05, 02:39:00,VALID,0,VALID,100,VALID,0.0169808,VALID,17.5829,VALID,172,VALID,0.99043,
2000-02-05, 02:40:00,VALID,0,VALID,100,VALID,0.0169808,VALID,17.6699,VALID,165,VALID,1.04955,
2000-02-05, 02:41:00,VALID,0,VALID,100,VALID,0.0339617,VALID,17.6671,VALID,170,VALID,0.901182,
2000-02-05, 02:42:00,VALID,0,VALID,100,VALID,0,VALID,17.6086,VALID,192,VALID,1.29729,
2000-02-05, 02:43:00,VALID,0,VALID,100,VALID,0.0339617,VALID,17.7057,VALID,186,VALID,1.00987,
2000-02-05, 02:44:00,VALID,0,VALID,100,VALID,0.0339617,VALID,17.744,VALID,196,VALID,0.827324,
2000-02-05, 02:45:01,VALID,0,VALID,100,VALID,0.0169808,VALID,17.7832,VALID,208,VALID,0.58754,
2000-02-05, 02:46:01,VALID,0,VALID,100,VALID,0.0509425,VALID,17.7573,VALID,206,VALID,0.616765,
2000-02-05, 02:47:00,VALID,0,VALID,100,VALID,0.0169808,VALID,17.7216,VALID,190,VALID,0.888281,
2000-02-05, 02:48:00,VALID,0,VALID,100,VALID,0.0169808,VALID,17.7218,VALID,203,VALID,0.613982,
2000-02-05, 02:49:00,VALID,0,VALID,100,VALID,0.0509425,VALID,17.7214,VALID,185,VALID,0.648037,
2000-02-05, 02:50:00,VALID,0,VALID,100,VALID,0,VALID,17.7119,VALID,182,VALID,0.768864,
2000-02-05, 02:51:00,VALID,0,VALID,100,VALID,0.0169808,VALID,17.6891,VALID,183,VALID,0.990954,
2000-02-05, 02:52:00,VALID,0,VALID,100,VALID,0.0169808,VALID,17.6637,VALID,171,VALID,0.788261,
2000-02-05, 02:53:00,VALID,0,VALID,100,VALID,0.0339617,VALID,17.5504,VALID,156,VALID,0.762952,
2000-02-05, 02:54:00,VALID,0,VALID,100,VALID,-0.0849042,VALID,17.3772,VALID,138,VALID,0.993945,
2000-02-05, 02:55:00,VALID,0,VALID,100,VALID,-0.101885,VALID,17.3481,VALID,154,VALID,1.05816,
2000-02-05, 02:56:00,VALID,0,VALID,100,VALID,-0.0509425,VALID,17.4581,VALID,174,VALID,0.737048,
2000-02-05, 02:57:01,VALID,0,VALID,100,VALID,-0.0849042,VALID,17.5029,VALID,175,VALID,0.775493,
2000-02-05, 02:58:00,VALID,0,VALID,100,VALID,-0.101885,VALID,17.5192,VALID,168,VALID,0.791807,
2000-02-05, 02:59:00,VALID,0,VALID,100,VALID,-0.0849042,VALID,17.5195,VALID,169,VALID,0.941934,
2000-02-05, 03:00:00,VALID,0,VALID,100,VALID,-0.101885,VALID,17.4999,VALID,167,VALID,0.776727,
2000-02-05, 03:01:00,VALID,0,VALID,100,VALID,-0.101885,VALID,17.4906,VALID,172,VALID,0.609375,
2000-02-05, 03:02:00,VALID,0,VALID,100,VALID,-0.101885,VALID,17.5003,VALID,194,VALID,0.494531,
2000-02-05, 03:03:00,VALID,0,VALID,100,VALID,-0.101885,VALID,17.5031,VALID,215,VALID,0.54442,
2000-02-05, 03:04:00,VALID,0,VALID,100,VALID,-0.101885,VALID,17.5096,VALID,230,VALID,0.776476,
2000-02-05, 03:05:00,VALID,0,VALID,100,VALID,-0.101885,VALID,17.5098,VALID,232,VALID,1.03359,
2000-02-05, 03:06:00,VALID,0,VALID,100,VALID,-0.0339617,VALID,17.5031,VALID,227,VALID,0.866406,
2000-02-05, 03:07:01,VALID,0,VALID,100,VALID,-0.0849042,VALID,17.4964,VALID,227,VALID,0.733141,
2000-02-05, 03:08:01,VALID,0,VALID,100,VALID,-0.101885,VALID,17.516,VALID,221,VALID,0.688133,
2000-02-05, 03:09:00,VALID,0,VALID,100,VALID,-0.0679233,VALID,17.5319,VALID,223,VALID,0.562089,
2000-02-05, 03:10:00,VALID,0,VALID,100,VALID,-0.0679233,VALID,17.5617,VALID,220,VALID,0.354235,
2000-02-05, 03:11:00,VALID,0,VALID,100,VALID,-0.0679233,VALID,17.558,VALID,220,VALID,0.291466,
2000-02-05, 03:12:00,VALID,0,VALID,100,VALID,-0.0679233,VALID,17.5617,VALID,219,VALID,0,
2000-02-05, 03:13:00,VALID,0,VALID,100,VALID,-0.0679233,VALID,17.5455,VALID,215,VALID,0,
2000-02-05, 03:14:00,VALID,0,VALID,100,VALID,-0.0849042,VALID,17.5289,VALID,214,VALID,0,
2000-02-05, 03:15:00,VALID,0,VALID,100,VALID,-0.0679233,VALID,17.5031,VALID,229,VALID,0,
2000-02-05, 03:16:00,VALID,0,VALID,100,VALID,-0.0679233,VALID,17.5033,VALID,232,VALID,0.527244,
2000-02-05, 03:17:00,VALID,0,VALID,100,VALID,-0.0849042,VALID,17.5065,VALID,232,VALID,0.970656,
2000-02-05, 03:18:01,VALID,0,VALID,100,VALID,-0.0339617,VALID,17.5096,VALID,229,VALID,0.844778,
2000-02-05, 03:19:00,VALID,0,VALID,100,VALID,-0.0509425,VALID,17.4932,VALID,238,VALID,0.746795,
2000-02-05, 03:20:00,VALID,0,VALID,100,VALID,-0.0849042,VALID,17.4999,VALID,234,VALID,0.64741,
2000-02-05, 03:21:00,VALID,0,VALID,100,VALID,-0.0509425,VALID,17.5098,VALID,225,VALID,0.382227,
2000-02-05, 03:22:00,VALID,0,VALID,100,VALID,-0.0679233,VALID,17.5225,VALID,227,VALID,0.0210503,
2000-02-05, 03:23:00,VALID,0,VALID,100,VALID,-0.0509425,VALID,17.5158,VALID,227,VALID,0,
2000-02-05, 03:24:00,VALID,0,VALID,100,VALID,0,VALID,17.3935,VALID,187,VALID,0,
2000-02-05, 03:25:00,VALID,0,VALID,100,VALID,0,VALID,17.1569,VALID,119,VALID,0.0956503,
2000-02-05, 03:26:00,VALID,0,VALID,100,VALID,-0.0169808,VALID,17.0314,VALID,103,VALID,0.612542,
2000-02-05, 03:27:00,VALID,0,VALID,100,VALID,0,VALID,16.9309,VALID,103,VALID,0.438528,
2000-02-05, 03:28:00,VALID,0,VALID,100,VALID,0,VALID,16.9378,VALID,103,VALID,0.03125,
2000-02-05, 03:29:00,VALID,0,VALID,100,VALID,0,VALID,16.9697,VALID,103,VALID,0,
2000-02-05, 03:30:00,VALID,0,VALID,100,VALID,0,VALID,16.9832,VALID,103,VALID,0,
2000-02-05, 03:31:00,VALID,0,VALID,100,VALID,0,VALID,16.9925,VALID,174,VALID,0,
2000-02-05, 03:32:00,VALID,0,VALID,100,VALID,-0.0169808,VALID,16.9955,VALID,217,VALID,0,
2000-02-05, 03:33:00,VALID,0,VALID,100,VALID,0,VALID,16.9757,VALID,228,VALID,0.317773,
2000-02-05, 03:34:00,VALID,0,VALID,100,VALID,-0.0169808,VALID,16.9794,VALID,230,VALID,0.175781,
2000-02-05, 03:35:00,VALID,0,VALID,100,VALID,0,VALID,17.002,VALID,207,VALID,0,
2000-02-05, 03:36:00,VALID,0,VALID,100,VALID,-0.0169808,VALID,17.0282,VALID,189,VALID,0,
2000-02-05, 03:37:00,VALID,0,VALID,100,VALID,0,VALID,17.0183,VALID,166,VALID,0,
2000-02-05, 03:38:00,VALID,0,VALID,100,VALID,0,VALID,16.9895,VALID,162,VALID,0,
2000-02-05, 03:39:01,VALID,0,VALID,100,VALID,-0.0339617,VALID,16.9897,VALID,162,VALID,0,
2000-02-05, 03:40:00,VALID,0,VALID,100,VALID,0,VALID,16.9759,VALID,162,VALID,0,
2000-02-05, 03:41:00,VALID,0,VALID,100,VALID,0,VALID,17.0282,VALID,161,VALID,0.570508,
2000-02-05, 03:42:00,VALID,0,VALID,100,VALID,0.0339617,VALID,17.1182,VALID,157,VALID,0.873197,
2000-02-05, 03:43:00,VALID,0,VALID,100,VALID,0,VALID,17.209,VALID,157,VALID,0.673277,
2000-02-05, 03:44:00,VALID,0,VALID,100,VALID,0.0169808,VALID,17.2448,VALID,157,VALID,0.474085,
2000-02-05, 03:45:00,VALID,0,VALID,100,VALID,-0.0169808,VALID,17.2799,VALID,157,VALID,0.210526,
2000-02-05, 03:46:00,VALID,0,VALID,100,VALID,0,VALID,17.3479,VALID,172,VALID,0.073117,
2000-02-05, 03:47:00,VALID,0,VALID,100,VALID,0,VALID,17.3995,VALID,172,VALID,0,
2000-02-05, 03:48:00,VALID,0,VALID,100,VALID,0,VALID,17.4348,VALID,172,VALID,0,
2000-02-05, 03:49:00,VALID,0,VALID,100,VALID,0,VALID,17.4318,VALID,172,VALID,0,
2000-02-05, 03:50:00,VALID,0,VALID,100,VALID,-0.0169808,VALID,17.403,VALID,172,VALID,0,
2000-02-05, 03:51:00,VALID,0,VALID,100,VALID,0,VALID,17.3315,VALID,172,VALID,0,
2000-02-05, 03:52:00,VALID,0,VALID,100,VALID,-0.0169808,VALID,17.3193,VALID,172,VALID,0,
2000-02-05, 03:53:00,VALID,0,VALID,100,VALID,-0.0339617,VALID,17.3186,VALID,177,VALID,0,
2000-02-05, 03:54:00,VALID,0,VALID,100,VALID,0,VALID,17.3507,VALID,195,VALID,0,
2000-02-05, 03:55:00,VALID,0,VALID,100,VALID,-0.0339617,VALID,17.4157,VALID,195,VALID,0.506373,
2000-02-05, 03:56:00,VALID,0,VALID,100,VALID,0.0169808,VALID,17.5098,VALID,193,VALID,0.999609,
2000-02-05, 03:57:00,VALID,0,VALID,100,VALID,0,VALID,17.5866,VALID,187,VALID,0.824554,
2000-02-05, 03:58:00,VALID,0,VALID,100,VALID,0,VALID,17.645,VALID,182,VALID,0.768446,
2000-02-05, 03:59:00,VALID,0,VALID,100,VALID,0.0169808,VALID,17.6639,VALID,187,VALID,0.443945,
2000-02-05, 04:00:00,VALID,0,VALID,100,VALID,0,VALID,17.6999,VALID,224,VALID,0.333008,
2000-02-05, 04:01:01,VALID,0,VALID,100,VALID,0,VALID,17.7126,VALID,232,VALID,0,
2000-02-05, 04:02:00,VALID,0,VALID,100,VALID,0,VALID,17.7253,VALID,226,VALID,0,
2000-02-05, 04:03:00,VALID,0,VALID,100,VALID,0,VALID,17.7575,VALID,214,VALID,0,
2000-02-05, 04:04:00,VALID,0,VALID,100,VALID,0,VALID,17.7672,VALID,211,VALID,0,
2000-02-05, 04:05:00,VALID,0,VALID,100,VALID,0,VALID,17.7705,VALID,180,VALID,0.66867,
2000-02-05, 04:06:00,VALID,0,VALID,100,VALID,0,VALID,17.7453,VALID,154,VALID,0.913462,
2000-02-05, 04:07:00,VALID,0,VALID,100,VALID,0.0169808,VALID,17.6927,VALID,139,VALID,0.886613,
2000-02-05, 04:08:00,VALID,0,VALID,100,VALID,-0.0169808,VALID,17.6445,VALID,130,VALID,0.775781,
2000-02-05, 04:09:00,VALID,0,VALID,100,VALID,0,VALID,17.6413,VALID,150,VALID,0.634415,
2000-02-05, 04:10:00,VALID,0,VALID,100,VALID,0.0169808,VALID,17.6835,VALID,167,VALID,0.808494,
2000-02-05, 04:11:00,VALID,0,VALID,100,VALID,-0.0169808,VALID,17.7319,VALID,167,VALID,0.692264,
2000-02-05, 04:12:01,VALID,0,VALID,100,VALID,-0.0169808,VALID,17.764,VALID,172,VALID,0.615132,
2000-02-05, 04:13:01,VALID,0,VALID,100,VALID,0,VALID,17.7995,VALID,172,VALID,0.688502,
2000-02-05, 04:14:00,VALID,0,VALID,100,VALID,0,VALID,17.8,VALID,172,VALID,0.758018,
2000-02-05, 04:15:00,VALID,0,VALID,100,VALID,0,VALID,17.7802,VALID,169,VALID,0.657617,
2000-02-05, 04:16:00,VALID,0,VALID,100,VALID,-0.0169808,VALID,17.7539,VALID,181,VALID,0.615668,
2000-02-05, 04:17:00,VALID,0,VALID,100,VALID,0,VALID,17.7578,VALID,185,VALID,0.764803,
2000-02-05, 04:18:00,VALID,0,VALID,100,VALID,0,VALID,17.728,VALID,158,VALID,0.961965,
2000-02-05, 04:19:00,VALID,0,VALID,100,VALID,0,VALID,17.7024,VALID,147,VALID,0.908361,
2000-02-05, 04:20:00,VALID,0,VALID,100,VALID,0,VALID,17.6927,VALID,138,VALID,0.627323,
2000-02-05, 04:21:00,VALID,0,VALID,100,VALID,-0.0169808,VALID,17.6505,VALID,135,VALID,0.540502,
2000-02-05, 04:22:00,VALID,0,VALID,100,VALID,0,VALID,17.6376,VALID,149,VALID,0.717722,
2000-02-05, 04:23:00,VALID,0,VALID,100,VALID,0,VALID,17.6604,VALID,162,VALID,0.62832,
2000-02-05, 04:24:01,VALID,0,VALID,100,VALID,0,VALID,17.6888,VALID,169,VALID,0.873438,